When you browse on this site, cookies collect data to enhance your experience and personalize the content and advertising you see.
Visit our Privacy Policy to learn more. By continuing to use the site, you agree to this use of cookies and data.

Hourly Weather Burgas

Today, 9 August, Sunday

Time Temperature Precipitation Wind Pressure Humidity
00:00 +26°C° 0 mm 6 mps 755 mmHg 61%
01:00 +26°C° 0 mm 6 mps 755 mmHg 63%
02:00 +24°C° 0 mm 6 mps 755 mmHg 66%
03:00 +24°C° 0.1 mm 6 mps 755 mmHg 67%
04:00 +24°C° 0.1 mm 6 mps 755 mmHg 68%
05:00 +24°C° 0.1 mm 6 mps 755 mmHg 70%
06:00 +26°C° 0.1 mm 7 mps 755 mmHg 65%
07:00 +28°C° 0.1 mm 8 mps 756 mmHg 60%
08:00 +29°C° 0.1 mm 8 mps 756 mmHg 55%
09:00 +31°C° 0.1 mm 8 mps 756 mmHg 50%
10:00 +33°C° 0.1 mm 8 mps 756 mmHg 45%
11:00 +34°C° 0.1 mm 8 mps 756 mmHg 40%
12:00 +34°C° 0.1 mm 8 mps 756 mmHg 41%
13:00 +34°C° 0.1 mm 8 mps 756 mmHg 42%
14:00 +33°C° 0.1 mm 8 mps 756 mmHg 43%
15:00 +33°C° 0 mm 8 mps 756 mmHg 44%
16:00 +32°C° 0 mm 8 mps 756 mmHg 46%
17:00 +31°C° 0 mm 8 mps 756 mmHg 48%
18:00 +28°C° 0 mm 7 mps 756 mmHg 55%
19:00 +27°C° 0 mm 6 mps 756 mmHg 62%
20:00 +25°C° 0 mm 4 mps 756 mmHg 69%
21:00 +23°C° 0 mm 4 mps 756 mmHg 72%
22:00 +24°C° 0 mm 3 mps 757 mmHg 75%
23:00 +22°C° 0 mm 3 mps 757 mmHg 78%

Tomorrow, 10 August, Monday

Time Temperature Precipitation Wind Pressure Humidity
00:00 +22°C° 0 mm 3 mps 757 mmHg 77%
01:00 +21°C° 0 mm 3 mps 757 mmHg 76%
02:00 +21°C° 0 mm 3 mps 757 mmHg 76%
03:00 +21°C° 0 mm 3 mps 757 mmHg 75%
04:00 +20°C° 0 mm 3 mps 757 mmHg 74%
05:00 +20°C° 0 mm 3 mps 756 mmHg 73%
06:00 +22°C° 0 mm 4 mps 757 mmHg 64%
07:00 +25°C° 0 mm 4 mps 757 mmHg 56%
08:00 +28°C° 0 mm 5 mps 757 mmHg 47%
09:00 +29°C° 0 mm 5 mps 757 mmHg 42%
10:00 +32°C° 0 mm 5 mps 757 mmHg 36%
11:00 +34°C° 0 mm 5 mps 757 mmHg 31%
12:00 +34°C° 0 mm 6 mps 757 mmHg 31%
13:00 +34°C° 0 mm 6 mps 757 mmHg 32%
14:00 +34°C° 0 mm 6 mps 757 mmHg 33%
15:00 +33°C° 0 mm 6 mps 757 mmHg 34%
16:00 +33°C° 0 mm 6 mps 756 mmHg 36%
17:00 +32°C° 0 mm 6 mps 756 mmHg 38%
18:00 +29°C° 0 mm 5 mps 757 mmHg 49%
19:00 +27°C° 0 mm 4 mps 757 mmHg 61%
20:00 +24°C° 0 mm 3 mps 757 mmHg 72%
21:00 +24°C° 0 mm 3 mps 758 mmHg 76%
22:00 +23°C° 0 mm 2 mps 758 mmHg 80%
23:00 +22°C° 0 mm 1 mps 758 mmHg 84%

Day after tomorrow, 11 August, Tuesday

Time Temperature Precipitation Wind Pressure Humidity
00:00 +22°C° 0 mm 1 mps 758 mmHg 83%
01:00 +22°C° 0 mm 1 mps 758 mmHg 82%
02:00 +22°C° 0 mm 1 mps 758 mmHg 81%
03:00 +21°C° 0 mm 1 mps 758 mmHg 80%
04:00 +21°C° 0 mm 1 mps 758 mmHg 80%
05:00 +21°C° 0 mm 1 mps 758 mmHg 79%
06:00 +23°C° 0 mm 1 mps 758 mmHg 68%
07:00 +26°C° 0 mm 1 mps 758 mmHg 57%
08:00 +28°C° 0 mm 1 mps 758 mmHg 46%
09:00 +30°C° 0 mm 2 mps 758 mmHg 41%
10:00 +33°C° 0 mm 3 mps 758 mmHg 36%
11:00 +34°C° 0 mm 3 mps 759 mmHg 30%
12:00 +35°C° 0 mm 4 mps 758 mmHg 31%
13:00 +35°C° 0 mm 5 mps 758 mmHg 31%
14:00 +35°C° 0 mm 5 mps 758 mmHg 31%
15:00 +34°C° 0 mm 5 mps 758 mmHg 33%
16:00 +33°C° 0 mm 5 mps 758 mmHg 35%
17:00 +32°C° 0 mm 5 mps 758 mmHg 38%
18:00 +29°C° 0 mm 4 mps 758 mmHg 49%
19:00 +27°C° 0 mm 3 mps 758 mmHg 60%
20:00 +24°C° 0 mm 2 mps 758 mmHg 72%
21:00 +24°C° 0 mm 2 mps 758 mmHg 75%
22:00 +23°C° 0 mm 1 mps 758 mmHg 77%
23:00 +23°C° 0 mm 1 mps 758 mmHg 80%

12 August, Wednesday

Time Temperature Precipitation Wind Pressure Humidity
00:00 +22°C° 0 mm 1 mps 758 mmHg 79%
01:00 +22°C° 0 mm 1 mps 758 mmHg 78%
02:00 +22°C° 0 mm 1 mps 757 mmHg 76%
03:00 +22°C° 0 mm 1 mps 757 mmHg 74%
04:00 +22°C° 0 mm 1 mps 757 mmHg 71%
05:00 +22°C° 0 mm 1 mps 757 mmHg 68%
06:00 +25°C° 0 mm 1 mps 757 mmHg 59%
07:00 +27°C° 0 mm 1 mps 757 mmHg 49%
08:00 +30°C° 0 mm 1 mps 757 mmHg 40%
09:00 +31°C° 0 mm 2 mps 757 mmHg 36%
10:00 +34°C° 0 mm 2 mps 757 mmHg 33%
11:00 +35°C° 0 mm 3 mps 757 mmHg 30%
12:00 +35°C° 0 mm 4 mps 757 mmHg 30%
13:00 +35°C° 0 mm 4 mps 757 mmHg 30%
14:00 +35°C° 0 mm 5 mps 757 mmHg 31%
15:00 +34°C° 0 mm 5 mps 757 mmHg 33%
16:00 +33°C° 0 mm 5 mps 757 mmHg 35%
17:00 +33°C° 0 mm 4 mps 756 mmHg 37%
18:00 +29°C° 0.1 mm 3 mps 757 mmHg 46%
19:00 +27°C° 0.1 mm 2 mps 757 mmHg 54%
20:00 +25°C° 0.1 mm 1 mps 758 mmHg 63%
21:00 +24°C° 0 mm 1 mps 758 mmHg 64%
22:00 +24°C° 0 mm 1 mps 758 mmHg 65%
23:00 +23°C° 0 mm 1 mps 758 mmHg 66%

13 August, Thursday

Time Temperature Precipitation Wind Pressure Humidity
00:00 +23°C° 0 mm 1 mps 758 mmHg 66%
01:00 +23°C° 0 mm 1 mps 758 mmHg 66%
02:00 +22°C° 0 mm 1 mps 758 mmHg 66%
03:00 +22°C° 0 mm 1 mps 758 mmHg 66%
04:00 +22°C° 0 mm 1 mps 758 mmHg 67%
05:00 +22°C° 0 mm 1 mps 758 mmHg 67%
06:00 +24°C° 0 mm 1 mps 758 mmHg 60%
07:00 +26°C° 0 mm 1 mps 758 mmHg 53%
08:00 +28°C° 0 mm 2 mps 759 mmHg 45%
09:00 +30°C° 0 mm 3 mps 759 mmHg 42%
10:00 +31°C° 0 mm 3 mps 758 mmHg 39%
11:00 +34°C° 0 mm 4 mps 758 mmHg 36%
12:00 +34°C° 0 mm 5 mps 758 mmHg 38%
13:00 +34°C° 0 mm 6 mps 758 mmHg 40%
14:00 +34°C° 0 mm 6 mps 758 mmHg 42%
15:00 +32°C° 0 mm 6 mps 758 mmHg 48%
16:00 +30°C° 0 mm 6 mps 758 mmHg 54%
17:00 +29°C° 0 mm 7 mps 758 mmHg 60%
18:00 +27°C° 0 mm 6 mps 758 mmHg 70%
19:00 +25°C° 0 mm 5 mps 758 mmHg 81%
20:00 +23°C° 0 mm 4 mps 759 mmHg 91%
21:00 +22°C° 0 mm 3 mps 759 mmHg 92%
22:00 +22°C° 0 mm 3 mps 759 mmHg 93%
23:00 +21°C° 0 mm 2 mps 759 mmHg 94%

14 August, Friday

Time Temperature Precipitation Wind Pressure Humidity
00:00 +21°C° 0 mm 2 mps 759 mmHg 93%
01:00 +20°C° 0 mm 2 mps 759 mmHg 92%
02:00 +20°C° 0 mm 2 mps 759 mmHg 90%
03:00 +20°C° 0 mm 2 mps 759 mmHg 89%
04:00 +19°C° 0 mm 2 mps 759 mmHg 88%
05:00 +20°C° 0 mm 1 mps 759 mmHg 87%
06:00 +21°C° 0 mm 2 mps 759 mmHg 76%
07:00 +24°C° 0 mm 2 mps 759 mmHg 65%
08:00 +26°C° 0 mm 3 mps 759 mmHg 53%
09:00 +28°C° 0 mm 3 mps 759 mmHg 47%
10:00 +29°C° 0 mm 4 mps 759 mmHg 41%
11:00 +32°C° 0 mm 4 mps 759 mmHg 35%
12:00 +32°C° 0 mm 5 mps 758 mmHg 35%
13:00 +32°C° 0 mm 5 mps 758 mmHg 36%
14:00 +33°C° 0 mm 5 mps 758 mmHg 36%
15:00 +32°C° 0 mm 5 mps 757 mmHg 38%
16:00 +30°C° 0 mm 5 mps 757 mmHg 41%
17:00 +29°C° 0 mm 5 mps 757 mmHg 44%
18:00 +27°C° 0 mm 4 mps 757 mmHg 54%
19:00 +25°C° 0 mm 4 mps 757 mmHg 63%
20:00 +22°C° 0 mm 3 mps 758 mmHg 73%
21:00 +21°C° 0 mm 3 mps 758 mmHg 76%
22:00 +20°C° 0 mm 2 mps 758 mmHg 79%
23:00 +20°C° 0 mm 2 mps 758 mmHg 82%
Show more